Terminal Aerodrome Forecast
Issued by NWS Detroit/Pontiac, MI

Home | Current Version | Previous Version | Text Only | Print | Product List | Glossary On
Versions: 1 2 3 4 5 6 7 8 9 10 11 12 13 14 15 16 17 18 19 20 21 22 23 24 25 26
000
FTUS43 KDTX 301430 AAB
TAFDTW
TAF AMD
KDTW 301430Z 3015/3118 03008KT P6SM VCTS BKN015CB OVC080
     FM301530 06008KT P6SM VCSH BKN015
     FM301800 08008KT P6SM SCT040 SCT045 BKN060
      TEMPO 3022/3102 4SM TSRA OVC035CB
     FM310200 04006KT P6SM BKN120
     FM310800 VRB04KT 5SM BR SCT025
     FM311200 VRB05KT P6SM SCT030 BKN060=

USA.gov is the U.S. government's official web portal to all federal, state and local government web resources and services.